User: anonymous
Location: Caltech
(34.1382°N, 118.1253°W)
Time: 07:23:17
(UTC-07:00)
Language:

Cosmos 1939 - Orbit

View from above orbital plane
View from above orbital plane
View from above satellite
View from above satellite

Ground track
Ground track

The orbit data is extracted from the following two-line orbital elements,

1 19045U 88032A   14208.30059078  .00050940  00000-0  36942-3 0  8968
2 19045 097.2148 276.8328 0001636 252.0504 147.3514 15.73276841446814
Epoch (UTC): 27 July 2014 07:12:51
Eccentricity: 0.0001636
inclination: 97.2148°
perigee height: 348 km
apogee height: 350 km
right ascension of ascending node: 276.8328°
argument of perigee: 252.0504°
revolutions per day: 15.73276841
mean anomaly at epoch: 147.3514°
orbit number at epoch: 44681

The dashed part of the orbit path shows where the satellite is in the earth's shadow,  

DLR